Location: Newark
(15.4608°S, 41.1635°W)
Time: 08:29:40
(UTC+00:00)

Vanguard 3 - Pass Details

Date: 31 July 2021
Orbit: 510 x 3260 km, 33.3° (Epoch: 22 September)

Event Time Altitude Azimuth Distance (km) Brightness Sun altitude
Rises 07:49:49 0° 286° (WNW) 4,918 - -19.0°
Reaches altitude 10° 07:54:01 10° 279° (W) 3,451 - -18.0°
Exits shadow 07:57:56 24° 263° (W) 2,118 8.6 -17.1°
Maximum altitude 08:01:23 39° 212° (SSW) 1,340 7.9 -16.3°
Drops below altitude 10° 08:06:01 10° 142° (SE) 2,147 9.6 -15.2°
Sets 08:08:04 0° 133° (SE) 2,890 10.5 -14.7°
